Kosmos-2251

operational
NORAD ID: 22675 Int'l Des: 1993-036 Owner: VKS Country: RU
LEOCIRCULAR

关于 Kosmos-2251

正在加载描述...

实时位置

正在加载3D地球...

即将过境

高度历史

Altitude vs Time

uPlot chart will show altitude changes over time

两行轨道根数

1 22675U 93036A 26061.59730753 .00000128 00000-0 55777-4 0 9993
2 22675 74.0405 169.9741 0025735 236.7363 123.1322 14.33231994709170
Epoch: Mar 2, 2026 • Age: 38 hours

当前状态

高度 794.7 km
速度 7.45 km/s
星下点 3.21°N, 160.69°E
发射日期 Jun 16, 1993
运行时间 32.7 years
类型 other

技术详情

分类 Payload
质量 800.00 kg
干质量 800.00 kg
总质量 800.00 kg
长度 3.00 m
直径 2.00 m
跨度 3.00 m
形状 Cyl
制造商 NPOPM
平台类型 Strela-2M
阶段状态 Collided
所有者/国家 VKS/RU

大型星座

Loading constellations...